Zurück zum Katalog

ARIANE 44LP DEB

AktivGTO
NORAD 25541·DEBRIS·🇫🇷 France

Gestartet Dec 11, 1988 von Guiana Space Centre

Loading…

TLE

VeraltetSource: Space-Track

Epoche: Sep 14, 2026, 00:39 UTC

1 25541U 88109H   26257.02764347 -.00000111  00000-0  98282-4 0  9995
2 25541   6.6396 120.6114 7068549 281.7271  12.7065  2.41419582239608

Verfolge ARIANE 44LP DEB in Echtzeit mit AllMySat

Download on the App Store